Regional Weather Roundup
Issued by NWS Wakefield, VA

Home | Current Version | Previous Version | Graphics & Text | Print | Product List | Glossary On
Versions: 1 2 3 4 5 6 7 8 9 10 11 12 13 14 15 16 17 18 19 20 21 22 23 24 25 26 27 28 29 30 31 32 33 34 35 36 37 38 39 40 41 42 43 44 45 46 47 48 49 50
411
ASUS41 KAKQ 271115
RWRAKQ

REGIONAL WEATHER ROUNDUP
NATIONAL WEATHER SERVICE WAKEFIELD VA
700 AM EDT SUN MAY 27 2018

Note: "fair" indicates few or no clouds below 12,000 feet with no
significant weather and/or obstructions to visibility. * = Denotes
station may not report precipitation (e.g., rain,snow,etc.),
thunder or fog.

VAZ042-051-052>054-056-271200-
NORTHERN VIRGINIA

CITY           SKY/WX    TMP DP  RH WIND       PRES   REMARKS
WASH NATIONAL  CLOUDY    75  71  87 SW7       29.91R
DULLES         PTSUNNY   72  71  97 W3        29.91R
FORT BELVOIR   CLOUDY    73  71  93 CALM      29.91R
QUANTICO       CLOUDY    74  73  97 S3        29.92R
FREDERICKSBRG* CLOUDY    73  73 100 SW5       29.91R
STAFFORD*      CLOUDY    73  73 100 CALM      29.96R
WARRENTON      CLOUDY    73  69  87 CALM      29.92R
CULPEPER*      CLOUDY    73  71  93 CALM      29.93R
MANASSAS*      CLOUDY    72  71  97 SW3       29.92R
LEESBURG*      FAIR      70  70 100 CALM      29.92S
WINCHESTER     FAIR      68  66  94 CALM      29.95R
FRONT ROYAL*   FAIR     N/A N/A N/A CALM      29.93R
LURAY*         PTSUNNY   70  68  94 CALM      29.95R
$$

VAZ048-049-060>072-079>083-271200-
CENTRAL AND SOUTH CENTRAL VIRGINIA

CITY           SKY/WX    TMP DP  RH WIND       PRES   REMARKS
RICHMOND       CLOUDY    73  70  90 SW9       29.94R
CHESTERFIELD*  CLOUDY    72  70  93 SW6       29.95R
PETERSBURG*    CLOUDY    72  69  92 SW6       29.96R
HANOVER        CLOUDY    74  70  87 SW9G20    29.94R
TAPPAHANNOCK*  PTSUNNY   73  71  94 SW7       29.93R
QUINTON*       CLOUDY    71  71 100 SW5       29.93R
CHARLOTTSVILLE CLOUDY    72  70  93 S5        29.93R
GORDONSVILLE*  CLOUDY    71  71 100 SW5       29.92R
ORANGE*        FAIR      70  68  94 S3        29.92R
LOUISA*        CLOUDY    70  69  96 SW6       29.98R
BUMPASS*       CLOUDY    71  70  96 SW6       29.93R
FARMVILLE*     PTSUNNY  N/A N/A N/A SW6       29.94R
CREWE*         CLOUDY    72  72 100 SW5       29.95R
FORT PICKETT*  CLOUDY   N/A N/A N/A SW8       29.96R
CHASE CITY*    CLOUDY    71  71 100 CALM      29.97R
CLARKSVILLE*   CLOUDY    70  70 100 SW6       29.97R
SOUTH HILL*    CLOUDY    71  71 100 SW7       30.03R
LAWRENCEVILLE* PTSUNNY   71  70  97 SW5       29.97R
EMPORIA*       CLOUDY    70  68  94 SE3       29.99R
$$

VAZ088>098-271200-
SOUTHEAST VIRGINIA

CITY           SKY/WX    TMP DP  RH WIND       PRES   REMARKS
NORFOLK        FAIR      74  70  87 SW15      29.96R
VIRGINIA BEACH PTSUNNY   73  69  87 SW10      29.96R
NORFOLK NAVAL  PTSUNNY   73  68  84 SW10G18   29.97R
WEST POINT*    CLOUDY    73  70  91 SW7       29.95R
SALUDA*        FAIR      72  72 100 S8        29.93R
NEWPORT NEWS   FAIR      73  70  90 SW10      29.95R
LANGLEY AFB    FAIR      73  72  99 SW13      29.96R
FORT EUSTIS    PTSUNNY   73  71  93 SW7       29.94R
WILLIAMSBURG*  FAIR      73  72  94 SW5       29.96R
HR EXEC AP*    FAIR      72  69  90 S7        29.98R
FRANKLIN*      FAIR      72  69  90 SW8       29.98R
US460-WAKEFLD  FAIR      72  70  93 SW6       29.96R FOG
$$

VAZ020-022-025-037-045-271200-
WEST CENTRAL AND SOUTHWEST VIRGINIA

CITY           SKY/WX    TMP DP  RH WIND       PRES   REMARKS
STAUNTON*      PTSUNNY   68  67  95 CALM      29.98R
WAYNESBORO*    FAIR      67  67 100 CALM      29.97R
HOT SPRINGS VA MOCLDY    52  52 100 W8        30.08S FOG
LYNCHBURG      CLOUDY    69  68  96 S5        29.97R
DANVILLE       CLOUDY    70  70 100 SW5       29.98R
SOUTH BOSTON*  CLOUDY    71  70  95 S3        29.97R
MARTINSVILLE   CLOUDY    68  67  98 CALM      30.01R
ROANOKE        MOCLDY    69  66  90 W3        30.00R
BLACKSBURG     FAIR      64  64 100 CALM      30.06R FOG
DUBLIN*        CLOUDY    64  64 100 CALM      30.04R
MARION*        CLOUDY    66  65  97 CALM      30.08R FOG
HILLSVILLE*    FAIR      64  64  97 S3        30.05R
RICHLANDS*     CLOUDY    66  52  59 SW5       30.06R
WISE*          LGT RAIN  64  64 100 SW6       30.07R
ABINGDON*      CLOUDY    68  68 100 CALM      30.05R FOG
$$

MDZ021>025-VAZ099-100-271200-
SOUTHERN MARYLAND AND THE DELMARVA PENINSULA

CITY           SKY/WX    TMP DP  RH WIND       PRES   REMARKS
PATUXENT RIVER FAIR      76  71  85 SW10      29.91R
BAY BRIDGE APT CLOUDY    75  72  88 SW6       29.90R FOG
LEONARDTOWN    CLOUDY    72  70  94 SW5       29.93R
DOVER          CLOUDY    73  72  96 S10       29.89S
GEORGETOWN     HVY RAIN  72  71  97 S8        29.92S FOG
EASTON         PTSUNNY   75  72  88 SW7       29.94R
CAMBRIDGE      PTSUNNY   73  72  94 SW5       29.91R
SALISBURY      PTSUNNY   73  72  96 SW5       29.92R
TANGIER        FAIR      75  73  94 SW17G23   29.92R
OCEAN CITY     FAIR      73  72  96 SW8       29.92F
WALLOPS ISLAND FAIR      73  71  93 SW9       29.92F
ACCOMACK*      FAIR      72  71  97 S8        29.94R
$$

NCZ012>017-030>032-271200-
NORTH CENTRAL AND EASTERN NORTH CAROLINA

CITY           SKY/WX    TMP DP  RH WIND       PRES   REMARKS
ROANOKE RAPIDS FAIR      70  70 100 CALM      29.99R
RALEIGH        MOCLDY    71  70  96 SW8       30.00R
ELIZABETH CITY FAIR      74  72  93 SW13      29.99R
AHOSKIE*       FAIR      71  70  97 S3        29.99R
EDENTON*       PTSUNNY   75  72  91 SW9       30.01R
CURRITUCK*     NOT AVBL
KILL DEVIL HLS FAIR      73  71  92 SW5       30.00R
MANTEO         FAIR      73  71  92 SW9       30.02R
CAPE HATTERAS  FAIR      75  73  93 SW7       30.03R
TARBORO*       NOT AVBL
GOLDSBORO      PTSUNNY   72  70  94 CALM      30.00R
WASHINGTON     CLOUDY    73  71  94 CALM      30.02R
GREENVILLE     FAIR      72  72 100 SW6       30.03R
NEW BERN       FAIR      70  70 100 S3        30.03R FOG
WILMINGTON     FAIR      70  68  93 CALM      30.02R
$$

VAZ048-271200-
ELSEWHERE

CITY           SKY/WX    TMP DP  RH WIND       PRES   REMARKS
HARRISBURG PA  PTSUNNY   74  69  85 NW6       29.89R
BALTIMORE      CLOUDY    73  72  96 W3        29.89R
ANNAPOLIS      CLOUDY    76  30  18 VRB5      29.89R
ANDREWS AFB    CLOUDY    73  70  91 SW5       29.90R
PHILADELPHIA   CLOUDY    73  69  87 S5        29.91R
HENDERSON NC   CLOUDY    69  67  94 SW8       29.99R
GREENSBORO     MOCLDY    71  71 100 SW9       29.99R
ROCKY MOUNT    CLOUDY    71  70  96 S6        30.00R
$$

VAZ100-271200-
MARINE

STATION/POSITION TIME  TEMP    WIND        PRES    WAVE   SWELL
                       AIR SEA DIR/SP/G            HT/PER HT/PER
                 (UTC) (F)     (DEG/KT/KT) (MB)    (FT/S) (FT/S)
BRANDYWINE LGT   1036   72     210/ 20/ 21 1013.0R
CAPE MAY NJ      1042   69 68  220/  7/ 10 1012.3R
LEWES DE         1036   72 66  220/  6/  9 1012.9R
15NM E FENWICK I 1050   67 65  210/ 14/ 17 1013.2R   3/ 5   2/ 8
OCEAN-CITY-INLET 1036   64     220/ 12/ 14 1013.7F
WACHAPREAGUE VA  1036   72 78  230/  5/  7 1013.7R
THOMAS POINT MD  1100   72 70  210/  7/  7 1013.3R
GOOSES REEF MD   1100   74     210/  8/ 10 1013.2    1
COVE POINT MD    1036   73     220/  7/  9 1013.3R
SOLOMONS ISLAND  1036   73 72  220/  7/  9 1012.6R
BISHOPS HEAD MD  1036   75 78  220/ 16/ 18 1013.0S
PINEY POINT MD   1048          250/  7/ 10   N/A
POTOMAC MD       1100   75 75  230/ 14/ 17 1012.4    1/ 2
CAMBRIDGE MD     1036   73 76              1013.6R
LEWISETTA VA     1036   74 75  250/ 10/ 14 1012.8R
RAPPAHANNOCK LGT 1048          200/ 16/ 18 1014.2R
STINGRAY PT      1100   74 75  240/ 16/ 17 1014.6    1/ 2
YORK RVR RNG VA  1036   74     220/ 17/ 20 1014.2R
YORKTOWN VA      1036   73 75  200/ 12/ 16 1013.3R
DOMINION TERM VA 1036   74     200/ 12/ 14 1014.6R
KIPTOPEKE VA     1048      74  210/ 12/ 16   N/A
CAPE HENRY VA    1036   74     210/  9/ 12 1012.8R
WILLOUBY STN VA  1036   74     210/ 15/ 20 1013.4R
S CRANEY ISL VA  1036   74     200/ 10/ 13 1014.2R
CAPE HENRY BUOY  1030      72                N/A     2/ 9
1ST LANDING BUOY 1100   74 74  230/ 16/ 19 1014.2    1/ 4
64NM E OF VA BCH 1050   73 72  210/ 14/ 16 1015.8R   3/ 5   2/ 9
DUCK PIER NC     1036   74 54  230/ 14/ 18 1015.4R
44100 DUCK FRF   1045      69                N/A     2/ 8
44056 DUCK FRF   1030      58                N/A     1/ 9
OREGON INLET NC  1036   76 79  210/ 15/ 16 1016.0R
HATTERAS NC      1036   75 77  230/  6/  8 1016.5R
DIAMOND SHLS NC  1100   77 78  220/ 10/ 12 1017.4
CAPE LOOKOUT NC  1100          210/  5/  7 1017.3R
$$




USA.gov is the U.S. government's official web portal to all federal, state and local government web resources and services.